Weerstation Grootegast  Weerstation Grootegast


15 daagse weersverwachting Renens (CH)

  • Overzicht
  • Per uur
  • 15 dagen
  • Extra
  • Vergelijk
  • Kaarten
  • Dagkaart
  • Meer »
  • Info
  • Statistieken
  • Directe link
    Temp 6h Neerslag Wind  
 07:20     19:34    Daglengte: 12:14 Vandaag
08:00
17°
 
3
14:00
22°
 
1
20:00
20°
2.9 mm
2
warningclass
 07:21     19:32    Daglengte: 12:11 Morgen
02:00
18°
3.6 mm
1
08:00
18°
0.7 mm
1
14:00
21°
 
2
20:00
20°
 
1
 07:23     19:30    Daglengte: 12:07 Dinsdag 22 Sep
02:00
17°
1.0 mm
1
08:00
16°
1.8 mm
2
14:00
21°
 
3
20:00
18°
 
3
 07:24     19:28    Daglengte: 12:04 Woensdag 23 Sep
02:00
17°
23.6 mm
3
Locatie info
Region: Ouest Lausannois
Latitude: 46.5391°N
Longitude: 6.5794°E
441 masl
Postcode: 1020
Temp/Neerslag /Baro Onweer/Dauwpunt
    Temp Baro 1h Neerslag Dauwpunt Wind UV Bewolking  
 07:20     19:34    Daglengte: 12:14 Vandaag
08:00
17°
1014.3 hPa
24%
15.4°
3
Windvlaag: 0.2 m/s
38%
09:00
18°
1014.5 hPa   15.5°
3
Windvlaag: 0.6 m/s
30%
10:00
20°
1014.6 hPa   15.7°
2
Windvlaag: 1.1 m/s
29%
11:00
21°
1014.5 hPa   15.3°
1
Windvlaag: 1 m/s
36%
12:00
22°
1014.4 hPa   15.0°
1
Windvlaag: 1.2 m/s
48%
13:00
22°
1014.2 hPa
11%
15.4°
2
Windvlaag: 1.5 m/s
66%
14:00
22°
1013.9 hPa
22%
15.5°
1
Windvlaag: 1 m/s
39%
15:00
22°
1013.6 hPa
38%
15.2°
2
Windvlaag: 0.9 m/s
54%
16:00
22°
1013.4 hPa
47%
14.6°
1
Windvlaag: 1.3 m/s
52%
17:00
22°
1013.1 hPa
76%
14.5°
2
Windvlaag: 1.4 m/s
67% warningclass
18:00
22°
1013.3 hPa
80%
15.2°
2
Windvlaag: 1.7 m/s
73%
19:00
21°
1013.7 hPa 1.4 mm
77%
15.4°
1
Windvlaag: 1 m/s
80% warningclass
20:00
20°
1014.0 hPa 1.6 mm
79%
15.7°
2
Windvlaag: 0.7 m/s
85% warningclass
21:00
19°
1014.5 hPa 0.6 mm
76%
15.8°
2
Windvlaag: 0.6 m/s
75%
22:00
19°
1014.7 hPa
33%
15.9°
2
Windvlaag: 0.2 m/s
71%
23:00
19°
1015.0 hPa 1.1 mm
32%
16.0°
2
Windvlaag: 0.1 m/s
71%
 07:21     19:32    Daglengte: 12:11 Morgen
00:00
18°
1015.2 hPa
32%
16.4°
1
Windvlaag: 0.2 m/s
79%
01:00
18°
1015.0 hPa 0.8 mm
68%
16.2°
1
Windvlaag: 1 m/s
79%
02:00
18°
1015.2 hPa 1.1 mm
66%
16.0°
1
Windvlaag: 1.3 m/s
81%
03:00
18°
1015.1 hPa 0.7 mm
71%
15.7°
1
Windvlaag: 1.2 m/s
79%
04:00
18°
1015.0 hPa
65%
15.7°
1
Windvlaag: 1.1 m/s
78%
05:00
17°
1014.8 hPa
28%
15.7°
1
Windvlaag: 1 m/s
79%
06:00
17°
1014.9 hPa
28%
15.8°
1
Windvlaag: 0.4 m/s
76%
07:00
17°
1015.1 hPa
34%
15.6°
1
Windvlaag: 0.4 m/s
67%
08:00
18°
1015.4 hPa
68%
15.8°
1
Windvlaag: 0.5 m/s
56%
09:00
18°
1015.6 hPa
70%
15.8°
1
Windvlaag: 0.7 m/s
52%
10:00
19°
1015.7 hPa
78%
15.7°
1
Windvlaag: 0.6 m/s
57%
11:00
19°
1015.8 hPa
81%
16.1°
2
Windvlaag: 0.5 m/s
52%
12:00
19°
1015.7 hPa
82%
15.9°
2
Windvlaag: 0.9 m/s
44%
13:00
20°
1015.4 hPa
46%
15.2°
1
Windvlaag: 1.3 m/s
38%
14:00
21°
1015.0 hPa
38%
14.8°
2
Windvlaag: 1.2 m/s
37%
15:00
21°
1014.7 hPa
39%
14.6°
2
Windvlaag: 1.2 m/s
43%
16:00
21°
1014.3 hPa
40%
14.6°
2
Windvlaag: 1 m/s
47%
17:00
21°
1014.1 hPa
75%
14.8°
2
Windvlaag: 0.9 m/s
45%
18:00
21°
1014.1 hPa
74%
14.8°
2
Windvlaag: 1 m/s
48%
19:00
20°
1014.4 hPa
74%
16.0°
2
Windvlaag: 0.9 m/s
53% warningclass
20:00
20°
1014.6 hPa
75%
15.1°
1
Windvlaag: 1.2 m/s
45%
21:00
19°
1014.8 hPa
70%
15.8°
2
Windvlaag: 1.4 m/s
43%
22:00
18°
1014.9 hPa 1.0 mm
68%
15.6°
1
Windvlaag: 1.4 m/s
51% warningclass
23:00
18°
1015.1 hPa
68%
15.5°
1
Windvlaag: 1.5 m/s
46%
 07:23     19:30    Daglengte: 12:07 Dinsdag 22 Sep
00:00
18°
1014.9 hPa
30%
15.5°
1
Windvlaag: 1.4 m/s
31%
01:00
17°
1014.8 hPa
65%
15.4°
1
Windvlaag: 0.9 m/s
34%
02:00
17°
1014.6 hPa
61%
15.3°
1
Windvlaag: 0.8 m/s
41%
03:00
17°
1014.5 hPa
61%
15.3°
2
Windvlaag: 1 m/s
33%
04:00
17°
1014.4 hPa
64%
15.2°
2
Windvlaag: 1.2 m/s
46%
05:00
16°
1014.1 hPa
82%
14.5°
2
Windvlaag: 1 m/s
62%
06:00
16°
1014.0 hPa 0.9 mm
86%
14.5°
2
Windvlaag: 0.9 m/s
57%
07:00
16°
1013.9 hPa 0.9 mm
95%
14.5°
2
Windvlaag: 0.8 m/s
44%
08:00
16°
1014.0 hPa
93%
14.8°
2
Windvlaag: 0.7 m/s
44%
09:00
17°
1014.0 hPa
92%
14.8°
1
Windvlaag: 0.7 m/s
59%
10:00
19°
1013.9 hPa
89%
14.5°
2
Windvlaag: 0.8 m/s
45%
11:00
19°
1013.7 hPa
92%
14.0°
2
Windvlaag: 1.5 m/s
36% warningclass
12:00
20°
1013.4 hPa
97%
14.0°
3
Windvlaag: 1.8 m/s
65%
13:00
20°
1012.9 hPa
54%
13.6°
3
Windvlaag: 1.7 m/s
78%
14:00
21°
1012.3 hPa
54%
13.9°
3
Windvlaag: 1.3 m/s
77%
15:00
21°
1011.8 hPa
97%
13.7°
3
Windvlaag: 1.4 m/s
68%
16:00
20°
1011.3 hPa
98%
14.2°
3
Windvlaag: 1.5 m/s
71%
17:00
20°
1011.0 hPa
99%
14.3°
3
Windvlaag: 1.4 m/s
76%
18:00
20°
1010.8 hPa
99%
14.1°
3
Windvlaag: 1.5 m/s
77%
19:00
19°
1010.7 hPa
98%
14.3°
2
Windvlaag: 1.1 m/s
90%
20:00
18°
1011.1 hPa
90%
14.7°
3
Windvlaag: 1 m/s
83%
21:00
18°
1011.1 hPa 4.3 mm
89%
14.5°
3
Windvlaag: 1.6 m/s
70%
22:00
17°
1011.0 hPa 4.2 mm
86%
14.5°
2
Windvlaag: 0.8 m/s
69%
23:00
17°
1011.0 hPa
81%
14.5°
2
Windvlaag: 0.9 m/s
72%
 07:24     19:28    Daglengte: 12:04 Woensdag 23 Sep
00:00
17°
1011.0 hPa 4.3 mm
80%
14.7°
3
Windvlaag: 2.7 m/s
82%
01:00
17°
1010.9 hPa 5.4 mm
79%
14.9°
3
Windvlaag: 3.2 m/s
69%
02:00
17°
1010.8 hPa 5.4 mm
83%
14.9°
3
Windvlaag: 1.6 m/s
80%
03:00
16°
1010.5 hPa
47%
14.4°
3
Windvlaag: 11.9 m/s
85%
04:00
16°
1010.3 hPa
94%
14.5°
3
Windvlaag: 10.5 m/s
93%
05:00
16°
1010.1 hPa 8.7 mm
100%
14.5°
3
Windvlaag: 10.9 m/s
89%
06:00
16°
1010.0 hPa 9.2 mm
98%
14.4°
3
Windvlaag: 9.9 m/s
89%
07:00
16°
1009.9 hPa 9.6 mm
100%
14.4°
3
Windvlaag: 11.1 m/s
87% warningclass
Temp/Neerslag /Baro Onweer/Dauwpunt
    Temp Baro Neerslag Dauwpunt Wind Bewolking  
 07:20     19:34    Daglengte: 12:14 Vandaag
08:00
17°
1014.3 hPa   15.4°
3
38%
11:00
21°
1014.5 hPa   15.3°
1
36%
14:00
22°
1013.9 hPa   15.5°
1
39%
17:00
22°
1013.1 hPa   14.5°
2
67% warningclass
20:00
20°
1014.0 hPa 2.9 mm 15.7°
2
85% warningclass
23:00
19°
1015.0 hPa 1.7 mm 16.0°
2
71%
 07:21     19:32    Daglengte: 12:11 Morgen
02:00
18°
1015.2 hPa 1.9 mm 16.0°
1
81%
05:00
17°
1014.8 hPa 0.7 mm 15.7°
1
79%
08:00
18°
1015.4 hPa   15.8°
1
56%
11:00
19°
1015.8 hPa   16.1°
2
52%
14:00
21°
1015.0 hPa   14.8°
2
37%
17:00
21°
1014.1 hPa   14.8°
2
45%
20:00
20°
1014.6 hPa   15.1°
1
45%
23:00
18°
1015.1 hPa 1.0 mm 15.5°
1
46%
 07:23     19:30    Daglengte: 12:07 Dinsdag 22 Sep
02:00
17°
1014.6 hPa   15.3°
1
41%
05:00
16°
1014.1 hPa   14.5°
2
62%
08:00
16°
1014.0 hPa 1.8 mm 14.8°
2
44%
11:00
19°
1013.7 hPa   14.0°
2
36% warningclass
14:00
21°
1012.3 hPa   13.9°
3
77%
17:00
20°
1011.0 hPa   14.3°
3
76%
20:00
18°
1011.1 hPa   14.7°
3
83%
23:00
17°
1011.0 hPa 8.6 mm 14.5°
2
72%
 07:24     19:28    Daglengte: 12:04 Woensdag 23 Sep
02:00
17°
1010.8 hPa 15.1 mm 14.9°
3
80%
05:00
16°
1010.1 hPa 8.7 mm 14.5°
3
89%
08:00
16°
1009.9 hPa 28.7 mm 14.3°
3
87% warningclass
11:00
18°
1009.2 hPa 27.4 mm 13.8°
4
70%
14:00
20°
1008.6 hPa 27.6 mm 13.3°
4
64%
17:00
18°
1007.9 hPa 27.8 mm 13.2°
3
39%
20:00
17°
1007.2 hPa 27.8 mm 12.8°
2
14%
23:00
17°
1007.5 hPa 28.7 mm 13.1°
3
43%
 07:25     19:26    Daglengte: 12:01 Donderdag 24 Sep
02:00
16°
1007.7 hPa 30.3 mm 13.3°
4
73%
05:00
15°
1008.7 hPa 32.8 mm 12.6°
4
81%
08:00
14°
1009.7 hPa 35.6 mm 12.0°
4
90%
11:00
15°
1009.6 hPa 40.4 mm 10.0°
4
59%
14:00
16°
1009.4 hPa 41.5 mm 7.3°
4
29%
17:00
15°
1008.2 hPa 43.8 mm 7.7°
4
34%
20:00
14°
1007.0 hPa 50.3 mm 7.8°
4
40%
23:00
13°
1007.5 hPa 51.4 mm 7.7°
4
60%
 07:27     19:24    Daglengte: 11:57 Vrijdag 25 Sep
02:00
12°
1007.9 hPa 54.2 mm 7.6°
3
80%
05:00
11°
1007.8 hPa 57.2 mm 6.7°
3
78%
08:00
Voelt als: 7.7°
1007.8 hPa 60.4 mm 5.9°
3
76%
11:00
11°
1008.4 hPa 62.5 mm 4.9°
4
54%
14:00
12°
1009.0 hPa 66.8 mm 3.2°
5
32%
17:00
10°
1010.2 hPa 68.8 mm 4.4°
4
58%
20:00
Voelt als: 6.3°
1011.4 hPa 70.4 mm 5.0°
2
84%
23:00
Voelt als: 5.5°
1011.8 hPa 72.1 mm 4.9°
3
88%
 07:28     19:22    Daglengte: 11:54 Zaterdag 26 Sep
02:00
Voelt als: 4.8°
1012.0 hPa 74.5 mm 4.7°
4
92%
05:00
Voelt als: 4.7°
1012.1 hPa 78.5 mm 4.2°
4
71%
08:00
Voelt als: 4.7°
1012.2 hPa 82.2 mm 3.9°
3
50%
11:00
Voelt als: 6.2°
1011.7 hPa 85.7 mm 4.0°
4
69%
14:00
10°
Voelt als: 7.9°
1011.2 hPa 91.0 mm 3.6°
4
87%
17:00
Voelt als: 7.8°
1012.3 hPa 95.4 mm 4.3°
3
77%
20:00
Voelt als: 8.4°
1013.6 hPa 97.7 mm 4.9°
1
66%
23:00
Voelt als: 8.0°
1014.7 hPa 99.2 mm 5.7°
1
78%
 07:29     19:20    Daglengte: 11:51 Zondag 27 Sep
02:00
Voelt als: 7.6°
1015.5 hPa 102.1 mm 6.5°
1
90%
05:00
Voelt als: 6.6°
1016.2 hPa   6.0°
2
53%
08:00
Voelt als: 5.7°
1017.1 hPa 218.8 mm 5.6°
2
17%
14:00
12°
1017.2 hPa 234.2 mm 2.1°
1
13%
20:00
11°
1016.8 hPa 241.9 mm 1.6°
2
65%
 07:30     19:18    Daglengte: 11:48 Maandag 28 Sep
02:00
11°
1017.3 hPa 245.0 mm 2.2°
4
90%
08:00
11°
1018.1 hPa 246.4 mm 5.1°
4
65%
14:00
15°
1017.8 hPa 246.9 mm 7.7°
5
77%
20:00
14°
1017.7 hPa 247.8 mm 9.4°
3
58%
 07:32     19:16    Daglengte: 11:44 Dinsdag 29 Sep
02:00
Voelt als: 9.2°
1019.3 hPa 248.2 mm 7.4°
1
20%
08:00
10°
1019.6 hPa 248.5 mm 7.8°
1
36%
14:00
12°
1023.0 hPa 251.1 mm 7.6°
3
1%
20:00
10°
Voelt als: 9.7°
1023.1 hPa 254.8 mm 7.7°
1
1%
 07:33     19:14    Daglengte: 11:41 Woensdag 30 Sep
02:00
Voelt als: 4.9°
1023.1 hPa 0.5 mm 4.2°
1
27%
08:00
Voelt als: 4.3°
1022.5 hPa 0.4 mm 3.2°
1
30%
14:00
14°
1020.1 hPa 0.4 mm 7.9°
1
31%
20:00
Voelt als: 9.0°
1020.5 hPa 0.7 mm 7.2°
1
37%
 07:34     19:12    Daglengte: 11:38 Donderdag 01 Okt
02:00
Voelt als: 6.0°
1020.6 hPa 0.6 mm 4.9°
1
35%
08:00
Voelt als: 5.6°
1020.0 hPa 0.6 mm 3.8°
1
32%
14:00
15°
1018.1 hPa 0.8 mm 7.4°
2
30%
20:00
Voelt als: 7.4°
1019.1 hPa 0.7 mm 6.2°
2
41%
 07:36     19:10    Daglengte: 11:34 Vrijdag 02 Okt
02:00
Voelt als: 5.1°
1019.7 hPa   3.8°
1
28%
08:00
Voelt als: 4.4°
1019.3 hPa   2.7°
2
20%
14:00
16°
1017.1 hPa   8.0°
1
24%
20:00
10°
1017.9 hPa 0.2 mm 7.6°
1
34%
 07:37     19:08    Daglengte: 11:31 Zaterdag 03 Okt
02:00
Voelt als: 7.1°
1018.7 hPa 0.2 mm 5.7°
2
29%
08:00
Voelt als: 7.1°
1018.6 hPa 0.3 mm 5.0°
1
32%
14:00
18°
1017.1 hPa 0.1 mm 9.6°
1
29%
20:00
11°
1017.7 hPa 0.2 mm 8.7°
1
32%
 07:38     19:06    Daglengte: 11:28 Zondag 04 Okt
02:00
Voelt als: 8.6°
1018.6 hPa 0.8 mm 7.0°
2
31%
08:00
Voelt als: 8.0°
1018.5 hPa 0.9 mm 6.1°
1
32%
14:00
18°
1017.4 hPa 0.7 mm 10.7°
1
31%
20:00
11°
1017.6 hPa 0.6 mm 9.0°
0
38%
 07:40     19:04    Daglengte: 11:24 Maandag 05 Okt
02:00
Voelt als: 8.6°
1018.4 hPa 0.4 mm 7.1°
2
29%
  CAPE Lifted Index Hail Supercell Tornado SRH 3km CL BTM PRES CL TOP PRES Swiss DWD icon SMHI TS
 07:20     19:34    Daglengte: 12:14 Vandaag
08:00 0 J/kg -0.5 K 0 % 0 % 0 % 0 m²/s² 0 0 0.13 3
09:00 9 J/kg -0.6 K 0 % 0 % 0 % 0 m²/s² 0 0 0.21 3
10:00 36 J/kg -0.7 K 0 % 0 % 0 % 0 m²/s² 0 0 -0.22 3
11:00 172 J/kg -0.7 K 0 % 0 % 0 % 0 m²/s² 0 0 -0.16 3
12:00 275 J/kg -1.2 K 0 % 0 % 0 % 0 m²/s² 0 0 -0.45 3
13:00 407 J/kg -2.0 K 0 % 0 % 0 % 0 m²/s² 0 0 -1.28 3
14:00 450 J/kg -2.2 K 0 % 0 % 0 % 0 m²/s² 0 0 -1.39 3
15:00 491 J/kg -1.8 K 0 % 0 % 0 % 0 m²/s² 0 0 -0.48 3
16:00 813 J/kg -3.1 K 0 % 0 % 0 % 0 m²/s² 0 0 -2.11 3
17:00 932 J/kg -3.4 K 0 % 0 % 0 % 0 m²/s² 0 0 -2.14 95
18:00 1209 J/kg -4.7 K 0 % 0 % 0 % 0 m²/s² 0 0 -4.07 3
19:00 549 J/kg -2.5 K 0 % 0 % 0 % 0 m²/s² 0 0 -1 95
20:00 489 J/kg -2.8 K 0 % 0 % 0 % 0 m²/s² 0 0 -2.41 95
21:00 278 J/kg -1.5 K 0 % 0 % 0 % 0 m²/s² 0 0 -1.23 3
22:00 200 J/kg -1.3 K 0 % 0 % 0 % 0 m²/s² 0 0 -0.64 3
23:00 150 J/kg -1.4 K 0 % 0 % 0 % 0 m²/s² 0 0 -0.35 3
 07:21     19:32    Daglengte: 12:11 Morgen
00:00 177 J/kg -1.3 K 0 % 0 % 0 % 0 m²/s² 0 0 -0.73 3
01:00 130 J/kg -1.1 K 0 % 0 % 0 % 0 m²/s² 0 0 -0.44 3
02:00 44 J/kg -0.8 K 0 % 0 % 0 % 0 m²/s² 0 0 -0.05 45
03:00 0 J/kg -0.2 K 0 % 0 % 0 % 0 m²/s² 0 0 0.76 3
04:00 0 J/kg -0.1 K 0 % 0 % 0 % 0 m²/s² 0 0 1.1 3
05:00 0 J/kg -0.1 K 0 % 0 % 0 % 0 m²/s² 0 0 1.16 3
06:00 0 J/kg 0.0 K 0 % 0 % 0 % 0 m²/s² 0 0 1.32 3
07:00 0 J/kg 0.2 K 0 % 0 % 0 % 0 m²/s² 0 0 1.19 3
08:00 0 J/kg 0.5 K 0 % 0 % 0 % 0 m²/s² 0 0 1.49 45
09:00 0 J/kg 0.7 K 0 % 0 % 0 % 0 m²/s² 0 0 1.75 3
10:00 2 J/kg 0.0 K 0 % 0 % 0 % 0 m²/s² 0 0 0.99 3
11:00 27 J/kg -0.4 K 0 % 0 % 0 % 0 m²/s² 0 0 0.86 3
12:00 81 J/kg -0.7 K 0 % 0 % 0 % 0 m²/s² 0 0 0.62 3
13:00 122 J/kg -0.9 K 0 % 0 % 0 % 0 m²/s² 0 0 0.45 3
14:00 199 J/kg -1.1 K 0 % 0 % 0 % 0 m²/s² 0 0 0.55 3
15:00 424 J/kg -2.1 K 0 % 0 % 0 % 0 m²/s² 0 0 -0.12 3
16:00 751 J/kg -2.8 K 0 % 0 % 0 % 0 m²/s² 0 0 -1.27 3
17:00 930 J/kg -3.4 K 0 % 0 % 0 % 0 m²/s² 0 0 -2.26 3
18:00 254 J/kg -1.8 K 0 % 0 % 0 % 0 m²/s² 0 0 0.51 3
19:00 94 J/kg -0.4 K 0 % 0 % 0 % 0 m²/s² 0 0 0.8 95
20:00 80 J/kg 0.0 K 0 % 0 % 0 % 0 m²/s² 0 0 1.2 80
21:00 180 J/kg -1.2 K 0 % 0 % 0 % 0 m²/s² 0 0 0 80
22:00 136 J/kg -0.8 K 0 % 0 % 0 % 0 m²/s² 0 0 0.58 95
23:00 107 J/kg -0.9 K 0 % 0 % 0 % 0 m²/s² 0 0 -0.06 80
 07:23     19:30    Daglengte: 12:07 Dinsdag 22 Sep
00:00 1 J/kg -0.2 K 0 % 0 % 0 % 0 m²/s² 0 0 0.64 2
01:00 1 J/kg -0.1 K 0 % 0 % 0 % 0 m²/s² 0 0 0.71 3
02:00 3 J/kg -0.2 K 0 % 0 % 0 % 0 m²/s² 0 0 0.43 45
03:00 39 J/kg -0.9 K 0 % 0 % 0 % 0 m²/s² 0 0 -0.54 45
04:00 15 J/kg -1.1 K 0 % 0 % 0 % 0 m²/s² 0 0 -0.74 45
05:00 39 J/kg -0.8 K 0 % 0 % 0 % 0 m²/s² 0 0 -0.32 45
06:00 55 J/kg -0.6 K 0 % 0 % 0 % 0 m²/s² 0 0 0.06 80
07:00 99 J/kg -1.0 K 0 % 0 % 0 % 0 m²/s² 0 0 -0.52 80
08:00 110 J/kg -0.5 K 0 % 0 % 0 % 0 m²/s² 0 0 -0.29 45
09:00 203 J/kg -0.9 K 0 % 0 % 0 % 0 m²/s² 0 0 -0.87 80
10:00 280 J/kg -1.3 K 0 % 0 % 0 % 0 m²/s² 0 0 -1 80
11:00 396 J/kg -1.4 K 0 % 0 % 0 % 0 m²/s² 0 0 -0.83 95
12:00 591 J/kg -1.9 K 0 % 0 % 0 % 0 m²/s² 0 0 -1.6 80
13:00 690 J/kg -2.5 K 0 % 0 % 0 % 0 m²/s² 0 0 -1.99 3
14:00 793 J/kg -3.0 K 0 % 0 % 0 % 0 m²/s² 0 0 -2.01 3
15:00 855 J/kg -3.0 K 0 % 0 % 0 % 0 m²/s² 0 0 -1.86 3
16:00 1069 J/kg -4.0 K 0 % 0 % 0 % 0 m²/s² 0 0 -2.89 3
17:00 1282 J/kg -4.3 K 0 % 0 % 0 % 0 m²/s² 0 0 -3.49 80
18:00 1062 J/kg -3.5 K 0 % 0 % 0 % 0 m²/s² 0 0 -3.08 80
19:00 201 J/kg -0.5 K 0 % 0 % 0 % 0 m²/s² 0 0 -0.41 80
20:00 15 J/kg -0.6 K 0 % 0 % 0 % 0 m²/s² 0 0 -0.21 80
21:00 4 J/kg -0.9 K 0 % 0 % 0 % 0 m²/s² 0 0 -0.54 80
22:00 0 J/kg 0.9 K 0 % 0 % 0 % 0 m²/s² 0 0 1.23 80
23:00 5 J/kg -0.2 K 0 % 0 % 0 % 0 m²/s² 0 0 0.22 3
 07:24     19:28    Daglengte: 12:04 Woensdag 23 Sep
00:00 51 J/kg 0.2 K 0 % 0 % 0 % 0 m²/s² 0 0 0.29 3
01:00 156 J/kg -0.7 K 0 % 0 % 0 % 0 m²/s² 0 0 -0.49 80
02:00 89 J/kg -0.2 K 0 % 0 % 0 % 0 m²/s² 0 0 -0.11 80
03:00 79 J/kg 0.0 K 0 % 0 % 0 % 0 m²/s² 0 0 0.03 3
04:00 250 J/kg -0.9 K 0 % 0 % 0 % 0 m²/s² 0 0 -0.72 3
05:00 597 J/kg -1.9 K 0 % 0 % 0 % 0 m²/s² 0 0 -1.6 80
06:00 565 J/kg -1.9 K 0 % 0 % 0 % 0 m²/s² 0 0 -1.57 80
07:00 559 J/kg -1.6 K 0 % 0 % 0 % 0 m²/s² 0 0 -1.42 95
Temp Baro Wind Neerslag
  EWN Forecast EWN WRFDA DWD ICON FMI HIRLAM MET Norway GFS
 07:20     19:34    Daglengte: 12:14 Vandaag
08:00 17.2° 1014.3 hPa 2.6 m/s 0.0 mm 17.9° 1013.9 hPa 4.5 m/s 0.0 mm 16.3° 1013.4 hPa 2.9 m/s -2.0 mm 17.5° 1015.6 hPa 2.8 m/s 0.0 mm 16.6° 1014.3 hPa 2.6 m/s 16.1° 1015.9 hPa 1.3 m/s
11:00 20.7° 1014.5 hPa 1.4 m/s 0.0 mm 21.7° 1014.0 hPa 1.0 m/s 0.0 mm 20.6° 1014.0 hPa 1.7 m/s 0.0 mm 20.1° 1014.8 hPa 1.3 m/s 0.0 mm 21.4° 1014.6 hPa 1.5 m/s 20.1° 1015.4 hPa 0.7 m/s
14:00 21.9° 1013.9 hPa 1.5 m/s 0.0 mm 24.2° 1012.8 hPa 0.7 m/s 0.0 mm 22.9° 1012.8 hPa 1.8 m/s 0.0 mm 22.7° 1013.7 hPa 0.7 m/s 0.0 mm 21.3° 1014.3 hPa 1.5 m/s 21.7° 1014.1 hPa 1.1 m/s
17:00 22.0° 1013.1 hPa 1.6 m/s 0.0 mm 24.6° 1011.2 hPa 1.7 m/s 0.0 mm 20.6° 1013.0 hPa 1.9 m/s 1.5 mm 23.6° 1013.1 hPa 1.8 m/s 0.0 mm 22.0° 1013.3 hPa 1.5 m/s 22.2° 1013.5 hPa 1.1 m/s
20:00 19.9° 1014.0 hPa 1.7 m/s 2.9 mm 20.8° 1013.2 hPa 4.7 m/s 2.5 mm 17.8° 1014.4 hPa 1.1 m/s 4.9 mm 22.3° 1014.2 hPa 0.6 m/s 0.0 mm 18.8° 1013.9 hPa 1.5 m/s 19.4° 1014.8 hPa 1.1 m/s
23:00 18.6° 1015.0 hPa 2.1 m/s 1.7 mm 18.7° 1013.6 hPa 1.8 m/s 4.5 mm 17.1° 1015.0 hPa 1.4 m/s 0.2 mm 20.6° 1014.9 hPa 0.8 m/s 0.0 mm 17.7° 1015.4 hPa 2.4 m/s 18.1° 1015.7 hPa 0.9 m/s
 07:21     19:32    Daglengte: 12:11 Morgen
02:00 17.6° 1015.2 hPa 1.4 m/s 1.9 mm 17.8° 1013.3 hPa 3.4 m/s 4.8 mm 16.6° 1015.1 hPa 0.9 m/s 0.1 mm 19.4° 1015.4 hPa 2.2 m/s 0.0 mm 15.9° 1015.6 hPa 0.8 m/s 16.8° 1015.7 hPa 0.2 m/s
05:00 17.4° 1014.8 hPa 1.2 m/s 0.7 mm 17.3° 1013.6 hPa 2.9 m/s 4.8 mm 16.7° 1014.7 hPa 1.1 m/s 0.0 mm 19.0° 1015.1 hPa 1.7 m/s 0.0 mm 16.3° 1015.2 hPa 0.8 m/s 16.2° 1015.8 hPa 0.6 m/s
08:00 17.5° 1015.4 hPa 0.9 m/s 0.0 mm 18.4° 1013.9 hPa 0.7 m/s 4.8 mm 16.4° 1015.1 hPa 0.6 m/s 0.0 mm 18.5° 1015.8 hPa 1.6 m/s 0.0 mm 16.3° 1015.7 hPa 0.8 m/s 16.1° 1016.0 hPa 0.7 m/s
11:00 19.4° 1015.8 hPa 1.5 m/s 0.0 mm 20.4° 1013.8 hPa 2.0 m/s 4.8 mm 18.1° 1015.9 hPa 1.8 m/s 0.2 mm 19.4° 1015.3 hPa 2.1 m/s 0.0 mm 19.3° 1016.3 hPa 1.3 m/s 19.1° 1016.1 hPa 0.7 m/s
14:00 20.8° 1015.0 hPa 1.6 m/s 0.0 mm 22.5° 1013.1 hPa 2.5 m/s 4.8 mm 19.6° 1015.3 hPa 2.8 m/s 0.0 mm 21.7° 1014.1 hPa 1.0 m/s 0.0 mm 20.9° 1015.2 hPa 1.2 m/s 21.6° 1014.8 hPa 1.6 m/s
17:00 21.1° 1014.1 hPa 1.5 m/s 0.0 mm 22.9° 1012.7 hPa 1.3 m/s 5.2 mm 20.1° 1014.5 hPa 3.0 m/s 0.0 mm 22.3° 1013.4 hPa 1.2 m/s 0.0 mm 20.8° 1014.2 hPa 1.2 m/s 22.4° 1014.4 hPa 1.2 m/s
20:00 19.7° 1014.6 hPa 1.1 m/s 0.0 mm 19.7° 1013.0 hPa 2.7 m/s 7.7 mm 18.0° 1015.2 hPa 1.2 m/s 2.6 mm 20.8° 1014.3 hPa 1.6 m/s 0.0 mm 19.5° 1014.7 hPa 0.8 m/s 19.0° 1014.8 hPa 0.7 m/s
23:00 17.9° 1015.1 hPa 1.5 m/s 1.0 mm 18.8° 1013.3 hPa 3.3 m/s 8.2 mm 16.6° 1015.5 hPa 0.6 m/s 1.9 mm 19.1° 1015.2 hPa 1.6 m/s 0.0 mm 16.4° 1014.9 hPa 1.4 m/s 16.8° 1015.5 hPa 0.3 m/s
 07:23     19:30    Daglengte: 12:07 Dinsdag 22 Sep
02:00 17.2° 1014.6 hPa 1.2 m/s 0.0 mm 17.7° 1012.8 hPa 3.9 m/s 8.2 mm 16.1° 1015.2 hPa 0.3 m/s 0.2 mm 18.2° 1014.6 hPa 1.1 m/s 0.0 mm 15.9° 1014.7 hPa 1.7 m/s 15.8° 1015.0 hPa 0.6 m/s
05:00 16.1° 1014.1 hPa 1.8 m/s 0.0 mm 17.3° 1011.5 hPa 5.3 m/s 8.2 mm 15.7° 1014.6 hPa 0.4 m/s 0.1 mm 15.3° 1014.3 hPa 1.6 m/s 15.1° 1014.0 hPa 0.6 m/s
08:00 16.0° 1014.0 hPa 1.5 m/s 1.8 mm 17.2° 1012.1 hPa 4.8 m/s 8.2 mm 15.7° 1014.4 hPa 0.7 m/s 0.9 mm 15.1° 1014.0 hPa 1.1 m/s 15.2° 1014.2 hPa 0.4 m/s
11:00 19.0° 1013.7 hPa 2.2 m/s 0.0 mm 19.1° 1011.1 hPa 4.8 m/s 9.7 mm 17.7° 1014.2 hPa 1.9 m/s 2.1 mm 19.8° 1013.7 hPa 2.3 m/s 18.1° 1013.0 hPa 0.3 m/s
14:00 20.5° 1012.3 hPa 3.1 m/s 0.0 mm 21.5° 1009.5 hPa 5.2 m/s 10.0 mm 19.7° 1012.7 hPa 3.1 m/s 1.3 mm 20.9° 1012.3 hPa 3.3 m/s 21.0° 1011.6 hPa 1.7 m/s
17:00 20.1° 1011.0 hPa 2.9 m/s 0.0 mm 22.2° 1008.1 hPa 6.4 m/s 10.0 mm 19.5° 1011.2 hPa 2.7 m/s 0.4 mm 20.1° 1011.1 hPa 2.6 m/s 21.1° 1010.0 hPa 4.3 m/s
20:00 17.8° 1011.1 hPa 2.6 m/s 0.0 mm 17.2° 1009.1 hPa 6.3 m/s 19.9 mm 17.6° 1011.3 hPa 2.0 m/s 1.1 mm 17.5° 1011.1 hPa 2.1 m/s 17.4° 1010.5 hPa 2.5 m/s
23:00 17.3° 1011.0 hPa 2.4 m/s 8.6 mm 17.9° 1008.9 hPa 4.1 m/s 34.7 mm 16.6° 1011.5 hPa 1.3 m/s 1.3 mm 16.9° 1011.0 hPa 2.6 m/s 16.5° 1011.1 hPa 2.0 m/s
 07:24     19:28    Daglengte: 12:04 Woensdag 23 Sep
02:00 16.7° 1010.8 hPa 3.1 m/s 15.1 mm 16.6° 1008.7 hPa 6.6 m/s 43.1 mm 16.3° 1011.1 hPa 1.9 m/s 1.1 mm 16.2° 1010.8 hPa 3.1 m/s 16.1° 1010.7 hPa 6.0 m/s
05:00 15.9° 1010.1 hPa 3.3 m/s 8.7 mm 16.6° 1007.1 hPa 7.6 m/s 61.8 mm 15.5° 1010.6 hPa 2.1 m/s 0.7 mm 15.9° 1010.4 hPa 3.0 m/s 15.9° 1009.9 hPa 5.9 m/s
08:00 15.7° 1009.9 hPa 3.3 m/s 28.7 mm 16.7° 1008.1 hPa 8.0 m/s 80.4 mm 15.1° 1010.4 hPa 2.2 m/s 2.8 mm 15.7° 1010.0 hPa 2.9 m/s 15.5° 1010.5 hPa 4.7 m/s
11:00 18.2° 1009.2 hPa 3.5 m/s 27.4 mm 18.4° 1009.1 hPa 3.7 m/s 15.3° 1010.3 hPa 1.6 m/s 27.4 mm
14:00 19.7° 1008.6 hPa 3.9 m/s 27.6 mm 19.8° 1008.6 hPa 4.1 m/s 19.1° 1009.1 hPa 2.0 m/s 27.6 mm
17:00 18.5° 1007.9 hPa 3.0 m/s 27.8 mm 18.2° 1007.9 hPa 2.8 m/s 21.1° 1007.9 hPa 5.1 m/s 27.8 mm
20:00 16.9° 1007.2 hPa 1.8 m/s 27.8 mm 16.7° 1007.1 hPa 1.6 m/s 18.8° 1008.6 hPa 4.0 m/s 27.8 mm
23:00 16.6° 1007.5 hPa 3.0 m/s 28.7 mm 16.5° 1007.2 hPa 3.0 m/s 17.1° 1010.4 hPa 3.3 m/s 28.7 mm
 07:25     19:26    Daglengte: 12:01 Donderdag 24 Sep
02:00 16.4° 1007.7 hPa 4.4 m/s 30.3 mm 16.4° 1007.4 hPa 4.4 m/s 16.7° 1010.7 hPa 4.4 m/s 30.3 mm
05:00 15.4° 1008.7 hPa 3.9 m/s 32.8 mm 15.3° 1008.5 hPa 3.9 m/s 16.0° 1010.8 hPa 4.0 m/s 32.8 mm
08:00 14.4° 1009.7 hPa 3.6 m/s 35.6 mm 14.3° 1009.6 hPa 3.4 m/s 15.5° 1011.4 hPa 5.6 m/s 35.6 mm
11:00 15.3° 1009.6 hPa 3.8 m/s 40.4 mm 15.3° 1009.5 hPa 3.9 m/s 15.7° 1010.5 hPa 3.2 m/s 40.4 mm
14:00 16.4° 1009.4 hPa 4.3 m/s 41.5 mm 16.3° 1009.4 hPa 4.4 m/s 17.5° 1009.5 hPa 3.6 m/s 41.5 mm
17:00 15.4° 1008.2 hPa 4.2 m/s 43.8 mm 15.4° 1008.1 hPa 4.0 m/s 15.9° 1008.2 hPa 7.0 m/s 43.8 mm
20:00 14.5° 1007.0 hPa 3.8 m/s 50.3 mm 14.5° 1006.9 hPa 3.6 m/s 14.3° 1007.6 hPa 5.8 m/s 50.3 mm
23:00 13.4° 1007.5 hPa 3.7 m/s 51.4 mm 13.3° 1007.3 hPa 3.3 m/s 14.4° 1009.0 hPa 8.2 m/s 51.4 mm
 07:27     19:24    Daglengte: 11:57 Vrijdag 25 Sep
02:00 12.1° 1007.9 hPa 3.3 m/s 54.2 mm 12.2° 1007.8 hPa 3.0 m/s 11.4° 1009.3 hPa 6.6 m/s 54.2 mm
05:00 10.7° 1007.8 hPa 3.1 m/s 57.2 mm 10.8° 1007.7 hPa 2.9 m/s 9.6° 1008.6 hPa 5.5 m/s 57.2 mm
08:00 9.3° 1007.8 hPa 3.0 m/s 60.4 mm 9.4° 1007.6 hPa 2.7 m/s 8.3° 1009.8 hPa 5.7 m/s 60.4 mm
11:00 10.6° 1008.4 hPa 3.9 m/s 62.5 mm 10.8° 1008.2 hPa 3.6 m/s 8.0° 1010.3 hPa 6.2 m/s 62.5 mm
14:00 11.9° 1009.0 hPa 4.8 m/s 66.8 mm 12.2° 1008.9 hPa 4.6 m/s 8.4° 1010.5 hPa 6.5 m/s 66.8 mm
17:00 10.0° 1010.2 hPa 3.7 m/s 68.8 mm 10.0° 1010.1 hPa 3.3 m/s 10.4° 1010.8 hPa 7.6 m/s 68.8 mm
20:00 7.9° 1011.4 hPa 2.5 m/s 70.4 mm 7.8° 1011.3 hPa 2.1 m/s 8.6° 1012.0 hPa 6.7 m/s 70.4 mm
23:00 7.7° 1011.8 hPa 3.5 m/s 72.1 mm 7.7° 1011.8 hPa 3.2 m/s 8.6° 1012.5 hPa 7.2 m/s 72.1 mm
 07:28     19:22    Daglengte: 11:54 Zaterdag 26 Sep
02:00 7.6° 1012.0 hPa 4.4 m/s 74.5 mm 7.5° 1012.2 hPa 4.2 m/s 8.2° 1009.9 hPa 6.6 m/s 74.5 mm
05:00 7.1° 1012.1 hPa 3.5 m/s 78.5 mm 7.0° 1012.5 hPa 3.5 m/s 8.0° 1006.7 hPa 4.4 m/s 78.5 mm
08:00 6.7° 1012.2 hPa 2.8 m/s 82.2 mm 6.5° 1012.9 hPa 2.7 m/s 8.8° 1004.4 hPa 3.9 m/s 82.2 mm
11:00 8.4° 1011.7 hPa 3.7 m/s 85.7 mm 8.2° 1012.5 hPa 3.5 m/s 10.2° 1002.4 hPa 6.5 m/s 85.7 mm
14:00 10.0° 1011.2 hPa 4.2 m/s 91.0 mm 10.0° 1012.2 hPa 4.3 m/s 9.7° 1000.8 hPa 2.5 m/s 91.0 mm
17:00 9.3° 1012.3 hPa 2.7 m/s 95.4 mm 9.3° 1013.4 hPa 2.7 m/s 8.4° 1001.1 hPa 2.4 m/s 95.4 mm
20:00 8.6° 1013.6 hPa 1.2 m/s 97.7 mm 8.7° 1014.5 hPa 1.1 m/s 7.8° 1004.1 hPa 2.7 m/s 97.7 mm
23:00 8.3° 1014.7 hPa 1.3 m/s 99.2 mm 8.4° 1015.4 hPa 1.1 m/s 7.2° 1006.4 hPa 3.8 m/s 99.2 mm
 07:29     19:20    Daglengte: 11:51 Zondag 27 Sep
02:00 8.1° 1015.5 hPa 1.5 m/s 102.1 mm 8.2° 1016.3 hPa 1.1 m/s 7.1° 1006.7 hPa 5.3 m/s 102.1 mm
05:00 7.7° 1016.2 hPa 1.9 m/s 107.3 mm 7.8° 1017.1 hPa 1.6 m/s 6.9° 1006.9 hPa 5.3 m/s 107.3 mm
08:00 7.4° 1017.1 hPa 2.4 m/s 111.6 mm 7.4° 1017.9 hPa 2.1 m/s 6.8° 1008.2 hPa 6.1 m/s 111.6 mm
14:00 12.5° 1017.2 hPa 1.4 m/s 118.7 mm 12.9° 1017.8 hPa 1.1 m/s 8.1° 1010.0 hPa 5.0 m/s 118.7 mm
20:00 11.3° 1016.8 hPa 1.6 m/s 121.6 mm 11.8° 1017.1 hPa 1.4 m/s 6.2° 1013.6 hPa 3.3 m/s 121.6 mm
 07:30     19:18    Daglengte: 11:48 Maandag 28 Sep
02:00 11.1° 1017.3 hPa 3.8 m/s 122.8 mm 11.6° 1017.5 hPa 3.8 m/s 5.5° 1015.1 hPa 4.0 m/s 122.8 mm
08:00 10.9° 1018.1 hPa 3.6 m/s 123.3 mm 11.4° 1018.3 hPa 3.4 m/s 5.1° 1016.0 hPa 5.3 m/s 123.3 mm
14:00 15.3° 1017.8 hPa 5.0 m/s 123.5 mm 15.8° 1017.9 hPa 4.8 m/s 9.5° 1016.6 hPa 7.1 m/s 123.5 mm
20:00 13.9° 1017.7 hPa 3.4 m/s 124.0 mm 14.5° 1017.4 hPa 3.4 m/s 7.5° 1020.9 hPa 2.9 m/s 124.0 mm
 07:32     19:16    Daglengte: 11:44 Dinsdag 29 Sep
02:00 9.2° 1019.3 hPa 1.2 m/s 124.1 mm 9.5° 1018.9 hPa 1.1 m/s 6.4° 1023.5 hPa 1.8 m/s 124.1 mm
08:00 10.1° 1019.6 hPa 1.4 m/s 124.3 mm 10.4° 1019.2 hPa 1.4 m/s 7.3° 1024.3 hPa 1.9 m/s 124.3 mm
14:00 12.2° 1023.0 hPa 3.5 m/s 125.6 mm 12.2° 1023.0 hPa 3.5 m/s 125.6 mm
20:00 9.8° 1023.1 hPa 1.3 m/s 128.2 mm 9.8° 1023.1 hPa 1.3 m/s 128.2 mm
 07:33     19:14    Daglengte: 11:41 Woensdag 30 Sep
02:00 5.7° 1023.1 hPa 1.4 m/s 0.5 mm
08:00 5.3° 1022.5 hPa 1.4 m/s 0.4 mm
14:00 14.3° 1020.1 hPa 1.4 m/s 0.4 mm
20:00 9.1° 1020.5 hPa 1.2 m/s 0.7 mm
 07:34     19:12    Daglengte: 11:38 Donderdag 01 Okt
02:00 6.6° 1020.6 hPa 1.3 m/s 0.6 mm
08:00 6.0° 1020.0 hPa 1.1 m/s 0.6 mm
14:00 14.8° 1018.1 hPa 1.6 m/s 0.8 mm
20:00 8.2° 1019.1 hPa 1.8 m/s 0.7 mm
 07:36     19:10    Daglengte: 11:34 Vrijdag 02 Okt
02:00 6.0° 1019.7 hPa 1.5 m/s 0.0 mm
08:00 5.7° 1019.3 hPa 1.8 m/s 0.0 mm
14:00 16.2° 1017.1 hPa 1.1 m/s 0.0 mm
20:00 9.7° 1017.9 hPa 0.9 m/s 0.2 mm
 07:37     19:08    Daglengte: 11:31 Zaterdag 03 Okt
02:00 8.0° 1018.7 hPa 1.7 m/s 0.2 mm
08:00 7.7° 1018.6 hPa 1.4 m/s 0.3 mm
14:00 17.6° 1017.1 hPa 0.9 m/s 0.1 mm
20:00 10.9° 1017.7 hPa 0.7 m/s 0.2 mm
 07:38     19:06    Daglengte: 11:28 Zondag 04 Okt
02:00 9.4° 1018.6 hPa 1.8 m/s 0.8 mm
08:00 8.5° 1018.5 hPa 1.4 m/s 0.9 mm
14:00 17.7° 1017.4 hPa 1.1 m/s 0.7 mm
20:00 11.1° 1017.6 hPa 0.5 m/s 0.6 mm
 07:40     19:04    Daglengte: 11:24 Maandag 05 Okt
02:00 9.2° 1018.4 hPa 1.6 m/s 0.4 mm
FMI Hirlam - 7.5 km EWN WRFDA - 12 km DWD ICON - 7 km GFS - 25 km Basiskaart






























































Updatetijd (Europe/Amsterdam) Resolutie Lengte Stap
FMI Hirlam 01:45, 07:45, 13:45, 19:45 7.5 km 49h 1h
EWN WRFDA 03:45, 09:45, 15:45, 21:45 12 km 73h 1h
DWD ICON 06:15, 12:15, 18:15, 00:15 7 km 75h 1h
GFS 01:45, 07:45, 13:45, 19:45 25 km 237h 3h
30+ mm
25-30 mm
20-25 mm
15-20 mm
10-15 mm
6-10 mm
4-6 mm
2-4 mm
1-2 mm
0.5-1 mm
0.2-0.5 mm
0.1-0.2 mm
30+ mm
25-30 mm
20-25 mm
15-20 mm
10-15 mm
6-10 mm
4-6 mm
2-4 mm
1-2 mm
0.5-1 mm
0.2-0.5 mm
0.1-0.2 mm
Sneeuwval
Natte sneeuw
Hagel
Vorst
30+ mm
25-30 mm
20-25 mm
15-20 mm
10-15 mm
6-10 mm
4-6 mm
2-4 mm
1-2 mm
0.5-1 mm
0.2-0.5 mm
0.1-0.2 mm
Sneeuwval
Natte sneeuw
Hagel
Vorst
Onweer
50 mm
40 mm
30 mm
26 mm
22 mm
18 mm
14 mm
10 mm
9 mm
8 mm
7 mm
6 mm
5 mm
4.5 mm
4 mm
3.5 mm
3 mm
2.5 mm
2 mm
1.5 mm
1 mm
0.8 mm
0.6 mm
0.4 mm
0.2 mm
0.05 mm
35°
30°
25°
20°
15°
10°
-5°
-10°
-15°
-20°
-25°
-30°
-35°
33> m/s
29 m/s
25 m/s
21 m/s
17 m/s
14 m/s
11 m/s
8 m/s
5 m/s
3 m/s
0 m/s
2600 J/kg
2400 J/kg
2200 J/kg
2000 J/kg
1800 J/kg
1600 J/kg
1400 J/kg
1200 J/kg
1000 J/kg
800 J/kg
600 J/kg
400 J/kg
200 J/kg
70 dBZ
65 dBZ
60 dBZ
55 dBZ
50 dBZ
45 dBZ
40 dBZ
35 dBZ
30 dBZ
25 dBZ
20 dBZ
15 dBZ
10 dBZ
5 dBZ
-1 K
-2 K
-3 K
-4 K
-5 K
-6 K
-7 K
-8 K
-9 K
950 m²/s²
900 m²/s²
850 m²/s²
800 m²/s²
750 m²/s²
700 m²/s²
650 m²/s²
600 m²/s²
550 m²/s²
500 m²/s²
450 m²/s²
400 m²/s²
350 m²/s²
300 m²/s²
250 m²/s²
200 m²/s²
150 m²/s²
100 m²/s²
46 m/s
44 m/s
42 m/s
40 m/s
38 m/s
36 m/s
34 m/s
32 m/s
30 m/s
28 m/s
26 m/s
24 m/s
22 m/s
20 m/s
16 m/s
12 m/s
8 m/s
4 m/s
30 m/s
28 m/s
26 m/s
24 m/s
22 m/s
20 m/s
18 m/s
16 m/s
14 m/s
12 m/s
10 m/s
8 m/s
6 m/s
4 m/s
2 m/s
3.0
2.8
2.6
2.4
2.2
2.0
1.8
1.6
1.4
1.2
1.0
0.8
0.6
0.4
0.2
15
14
13
12
11
10
9
8
7
6
5
4
3
2
1
90%
80%
70%
60%
50%
40%
30%
20%
10%
42
40
38
36
34
32
30
28
26
24
22
20
18
16
14
12
90+ cm
80-90 cm
70-80 cm
60-70 cm
50-60 cm
40-50 cm
30-40 cm
20-30 cm
10-20 cm
1-10 cm
Sneeuwval
Natte sneeuw
Regen
>120 mm
115 mm
110 mm
105 mm
100 mm
95 mm
90 mm
85 mm
80 mm
75 mm
70 mm
65 mm
60 mm
55 mm
50 mm
45 mm
45 mm
40 mm
35 mm
30 mm
25 mm
20 mm
15 mm
10 mm
5 mm
0.1 mm
960 hPa
880 hPa
800 hPa
720 hPa
640 hPa
560 hPa
584 gpdm
568 gpdm
552 gpdm
536 gpdm
520 gpdm
504 gpdm
488 gpdm
Extreem zwaar Noodweer Kans op onweer
15% 15% 5% 50% 15%

Dag




Kaart






35°
30°
25°
20°
15°
10°
-5°
-10°
-15°
-20°
-25°
-30°
-35°
33> m/s
29 m/s
25 m/s
21 m/s
17 m/s
14 m/s
11 m/s
8 m/s
5 m/s
3 m/s
0 m/s
Extreem zwaar Noodweer Kans op onweer
15% 15% 5% 50% 15%
>120 mm
115 mm
110 mm
105 mm
100 mm
95 mm
90 mm
85 mm
80 mm
75 mm
70 mm
65 mm
60 mm